Content
SEND FEEDBACK

Daily
Averages
Monthly
Summary
United States of America

MARBLEHEAD, OHIO


Home > North America > United States > Ohio
Elevation: 630 feet     Latitude: 41 30N     Longitude: 082 42W

WEATHER
 
SELECT A DAY
Number of Records: 180,263;   Date Range: 10/8/98 - 7/23/14
 
SHARE

PRINT THIS DATA

[ ← Previous Day ]
WEATHER ALMANAC - JANUARY 9, 2013
[ Next Day → ]
[ °C ]   °F
Weather ElementAverageHighLow
Temperature39.5 °F44.1 °F (12:53 pm)34 °F (1:53 am)
Dewpoint29.8 °F34 °F (10:53 am)26.1 °F (1:53 am)
Humidity68.7 %76 % (8:53 pm)60 % (4:53 pm)
Barometer30.27 in30.49 in (11:53 pm)30.16 in (5:53 am)
Wind Speed13 mph21.9 mph (12:53 pm)
Wind Gust29.9 mph (11:53 am)
Weather ElementAverage
Visibility9.9 mi
Wind DirectionWSW (238.3 °)

Weather ElementTotal
Precipitation0.01 in
Heating Degree Days26 (Base 65)
Averaged from 23 records on January 9, 2013
WEATHER CONDITIONS BREAKOUT
WIND DIRECTION BREAKOUT
WEATHER BY HOUR - JANUARY 9, 2013
[ °C ]   °F
Local TimeTemperatureDewpointHumidityBarometerVisibilityWind DirectionWind SpeedGust SpeedPrecipitationEventsConditions
1:53 AM34.0 °F26.1 °F73 %30.22 in8.0 miSouth (180°)10.4 mphClear
2:53 AM34.0 °F26.1 °F73 %30.21 in9.0 miSouth (180°)12.7 mphClear
3:53 AM34.0 °F26.1 °F73 %30.19 in10.0 miSouth (190°)10.4 mphClear
4:53 AM35.1 °F26.1 °F70 %30.17 in10.0 miSouth (190°)9.2 mphOvercast
5:53 AM37.9 °F27.0 °F65 %30.16 in10.0 miSouth (180°)9.2 mphMostly Cloudy
6:53 AM41.0 °F28.9 °F62 %30.16 in10.0 miSSW (210°)11.5 mphMostly Cloudy
7:53 AM43.0 °F32.0 °F65 %30.18 in10.0 miWSW (240°)15.0 mph0.00 inRainLight Rain
8:53 AM41.0 °F33.1 °F73 %30.18 in10.0 miWSW (240°)12.7 mph20.7 mph0.01 inOvercast
9:53 AM43.0 °F33.1 °F68 %30.19 in10.0 miWSW (250°)18.4 mphClear
10:53 AM42.1 °F34.0 °F73 %30.21 in10.0 miWSW (250°)18.4 mphClear
11:53 AM43.0 °F33.1 °F68 %30.22 in10.0 miWest (270°)20.7 mph29.9 mphClear
12:53 PM44.1 °F32.0 °F63 %30.20 in10.0 miWest (260°)21.9 mph29.9 mphClear
1:53 PM44.1 °F32.0 °F63 %30.21 in10.0 miWest (260°)15.0 mphClear
2:53 PM44.1 °F32.0 °F63 %30.23 in10.0 miWSW (250°)17.3 mph24.2 mphClear
3:53 PM44.1 °F32.0 °F63 %30.25 in10.0 miWSW (250°)16.1 mphClear
4:53 PM42.1 °F28.9 °F60 %30.28 in10.0 miWest (270°)16.1 mph23.0 mphClear
5:53 PM39.9 °F30.0 °F68 %30.32 in10.0 miWest (260°)12.7 mphClear
6:53 PM39.9 °F30.0 °F68 %30.35 in10.0 miWSW (250°)15.0 mphClear
7:53 PM39.0 °F28.9 °F67 %30.39 in10.0 miWest (270°)12.7 mphClear
8:53 PM36.0 °F28.9 °F76 %30.41 in10.0 miWest (260°)6.9 mphClear
9:53 PM36.0 °F28.9 °F76 %30.44 in10.0 miWSW (250°)6.9 mphClear
10:53 PM36.0 °F28.0 °F73 %30.47 in10.0 miWest (270°)4.6 mphClear
11:53 PM35.1 °F28.0 °F76 %30.49 in10.0 miWSW (250°)4.6 mphClear
Hourly data recorded from KLPR, located miles away from Marblehead, Ohio







STORIES FROM OUR PARTNERS